This is the latest recevied weather packets stored in our database for station/object KQ4DLB-13. If no packets are shown the sender has not sent any weather packets the latest 1 day(s).
| Time | Temp. | Humidity | Pressure | Rain* | Wind** | Luminosity | Snow |
|---|---|---|---|---|---|---|---|
| 1777976402 | 12.78° C | 84% | 985.4 hPa | 0 mm | 1.79 m/s, 157° | - | - |
| 1777976102 | 12.78° C | 83% | 985.3 hPa | 0 mm | 1.34 m/s, 154° | - | - |
| 1777975802 | 12.78° C | 83% | 985.2 hPa | 0 mm | 1.34 m/s, 169° | - | - |
| 1777975502 | 12.78° C | 82% | 985.2 hPa | 0 mm | 1.34 m/s, 162° | - | - |
| 1777975202 | 12.78° C | 83% | 985.2 hPa | 0 mm | 1.34 m/s, 162° | - | - |
| 1777974901 | 12.78° C | 83% | 985.1 hPa | 0 mm | 1.34 m/s, 170° | - | - |
| 1777974603 | 12.78° C | 82% | 985.1 hPa | 0 mm | 1.34 m/s, 172° | - | - |
| 1777974301 | 12.78° C | 82% | 985.2 hPa | 0 mm | 0.89 m/s, 174° | - | - |
| 1777974002 | 12.78° C | 82% | 985.2 hPa | 0 mm | 1.34 m/s, 160° | - | - |
| 1777973702 | 12.78° C | 81% | 985.2 hPa | 0 mm | 1.34 m/s, 161° | - | - |
| 1777973402 | 12.78° C | 81% | 985.1 hPa | 0 mm | 1.34 m/s, 162° | - | - |
| 1777973102 | 12.78° C | 81% | 985.1 hPa | 0 mm | 1.34 m/s, 161° | - | - |
| 1777972802 | 12.78° C | 81% | 985.1 hPa | 0 mm | 1.34 m/s, 161° | - | - |
| 1777972502 | 13.33° C | 80% | 985.1 hPa | 0 mm | 1.34 m/s, 162° | - | - |
| 1777972202 | 13.33° C | 80% | 985.1 hPa | 0 mm | 1.34 m/s, 157° | - | - |
| 1777971902 | 13.33° C | 79% | 985.1 hPa | 0 mm | 1.34 m/s, 163° | - | - |
| 1777971601 | 13.33° C | 79% | 985 hPa | 0 mm | 1.79 m/s, 157° | - | - |
| 1777971302 | 13.33° C | 78% | 984.9 hPa | 0 mm | 2.24 m/s, 163° | - | - |
| 1777971002 | 13.89° C | 77% | 984.9 hPa | 0 mm | 1.79 m/s, 172° | - | - |
| 1777970702 | 13.89° C | 78% | 984.9 hPa | 0 mm | 1.79 m/s, 176° | - | - |
| 1777970402 | 13.89° C | 77% | 984.8 hPa | 0 mm | 1.79 m/s, 171° | - | - |
| 1777970102 | 13.89° C | 76% | 984.9 hPa | 0 mm | 1.79 m/s, 179° | - | - |
| 1777969802 | 13.89° C | 76% | 984.8 hPa | 0 mm | 2.24 m/s, 175° | - | - |
| 1777969502 | 13.89° C | 76% | 984.7 hPa | 0 mm | 1.79 m/s, 179° | - | - |
| 1777969202 | 14.44° C | 76% | 984.4 hPa | 0 mm | 1.79 m/s, 169° | - | - |
* Rain latest hour (hover to see other rain measurements)
** Current wind speed in m/s (hover to see current wind gust speed)